Featured Flight

MET1146 - Detroit to Portland

Boeing 737-200
711MT
4 hrs 00 mins
1695 nm
Scheduled - M

Bid/PiRep Status

Bid was submitted on December 28th, 2016 13:12 UTC.
PiRep # 74496: Approved by Dave Nichols on December 30th, 2016 2:55 UTC

Departure

Departing from
Detroit (DTW)
Departure gate
Scheduled Departure
GMT 1000
Local 0600
METAR KDTW 200653Z 22017KT 10SM BKN180 01/M04 A2978 RMK AO2 PK WND 21026/0555 SLP089 T00111044
TAF KDTW 200522Z 2006/2112 22015G25KT P6SM BKN200 FM201000 22010KT 3SM HZ BKN020 FM201600 23010G18KT P6SM BKN025 FM202300 24007KT 5SM BR OVC020

Route Map

Planning Resources

BERYS Q440 HUFFR EP J70 ABR J90 HLN FINUT BRUKK
DUNKS J70 ABR J32 DPR J16 PDT JKNOW HHOOD
Route:
OFP Layout:
Units:
Detailed Navlog:
ETOPS Planning:
Plan Stepclimbs:
Runway Analysis:
Include NOTAMS:
FIR NOTAMS:
Flight Maps:

Popularity

Hub Current Bids PiReps this month Total PiReps
KLAX 0 0 0
KBOS 0 0 0
KDFW 0 0 0